This demonstration page uses our WeatherBlox Daily Observations layout. Learn more.

Left ArrowRight Arrow

Hourly Observations for June 20, 2017

Temp ( °F °C ) Dew Point ( °F °C ) Humidity (%) Winds ( mph kmh ) Pressure ( in mb ) Visibility ( mi km ) Precip ( " mm )
12:51 am 00:51 Clear 86 30 39 3.9 19 19 E 6 9 29.75 1007 10 16 N/A
1:51 am 01:51 Clear 83 28.3 39 3.9 21 21 ENE 7 11 29.72 1007 10 16 N/A
2:51 am 02:51 Clear 81 27.2 38 3.3 21 21 ENE 6 9 29.72 1006 10 16 N/A
3:51 am 03:51 Clear 80 26.7 39 3.9 23 23 NE 5 7 29.72 1006 10 16 N/A
4:51 am 04:51 Clear 77 25 38 3.3 24 24 N 5 7 29.77 1008 10 16 N/A
5:51 am 05:51 Sunny 82 27.8 40 4.4 22 22 E 9 15 29.79 1009 10 16 N/A
6:51 am 06:51 Sunny 88 31.1 41 5 19 19 SE 9 15 29.80 1009 10 16 N/A
7:51 am 07:51 Sunny 94 34.4 41 5 16 16 ESE 17 28 29.81 1010 10 16 N/A
8:51 am 08:51 Sunny 96 35.6 43 6.1 16 16 ESE 10 17 29.82 1010 10 16 N/A
9:51 am 09:51 Sunny 100 37.8 50 10 18 18 ESE 14 22 29.81 1010 10 16 N/A
10:51 am 10:51 Sunny 102 38.9 52 11.1 19 19 ESE 8 13 29.79 1009 10 16 N/A
11:51 am 11:51 Sunny 105 40.6 52 11.1 17 17 ESE 13 20 29.77 1008 10 16 N/A
12:51 pm 12:51 Sunny 108 42.2 50 10 14 14 undefined N/A 29.72 1007 10 16 N/A
1:51 pm 13:51 Sunny 108 42.2 47 8.3 13 13 VRB 5 7 29.69 1005 10 16 N/A
2:51 pm 14:51 Sunny 111 43.9 46 7.8 11 11 VRB 3 6 29.65 1004 10 16 N/A
3:51 pm 15:51 Sunny 110 43.3 44 6.7 11 11 E 7 11 29.62 1003 10 16 N/A
4:51 pm 16:51 Sunny 109 42.8 40 4.4 9 9 N N/A 29.61 1003 10 16 N/A
5:09 pm 17:09 Sunny with Nearby Thunderstorms 110 43.3 38 3.3 9 9 NNW 7 11 29.47 998 10 16 N/A
5:25 pm 17:25 Sunny 106 41.1 37 2.8 9 9 N 25 41 29.47 998 10 16 N/A
5:34 pm 17:34 Sunny with Nearby Thunderstorms 106 41 39 4 10 10 N 17 28 29.47 998 10 16 N/A
5:51 pm 17:51 Sunny with Nearby Thunderstorms 103 39.4 42 5.6 12 12 NE 23 37 29.62 1003 10 16 N/A
6:28 pm 18:28 Sunny 100 38 41 5 13 13 NE 18 30 29.50 999 10 16 N/A
6:51 pm 18:51 Mostly Cloudy 100 37.8 45 7.2 15 15 NNE 10 17 29.65 1004 10 16 N/A
7:13 pm 19:13 Partly Cloudy with Nearby Thunderstorms 100 37.8 42 5.6 14 14 NNW 10 17 29.53 1000 10 16 N/A
7:30 pm 19:30 Clear 100 38 37 3 11 11 NW 13 20 29.53 1000 10 16 N/A
7:51 pm 19:51 Clear with Nearby Thunderstorms 100 37.8 38 3.3 12 12 NW 7 11 29.66 1005 10 16 N/A
8:12 pm 20:12 Clear 99 37 43 6 15 15 VRB 3 6 29.59 1002 10 16 N/A
8:51 pm 20:51 Clear 94 34.4 49 9.4 21 21 NE 8 13 29.68 1005 10 16 N/A
9:51 pm 21:51 Clear 92 33.3 49 9.4 23 23 S 3 6 29.70 1006 10 16 N/A
10:51 pm 22:51 Clear 91 32.8 48 8.9 23 23 E 6 9 29.70 1006 10 16 N/A
11:51 pm 23:51 Clear 89 31.7 47 8.3 23 23 WNW 3 6 29.68 1005 10 16 N/A

Powered by AerisWeather